Location: Mississauga
(43.5802°N, 79.6166°W)
Time: 19:26:38
(UTC-05:00)

Cosmos 1437 Rocket - Visible Passes

Search period start: 26 February 2015 00:00
Search period end: 08 March 2015 00:00
Orbit: 524 x 562 km, 81.2° (Epoch: 25 February)

Date Brightness Start Highest point End Pass type
(mag) Time Alt. Az. Time Alt. Az. Time Alt. Az.
26 Feb 6.1 06:15:06 10° SE 06:17:51 18° E 06:20:46 10° NE visible
26 Feb 6.7 19:26:11 10° WNW 19:27:21 11° W 19:28:17 10° W visible
27 Feb 6.1 06:08:29 10° SE 06:11:20 19° E 06:14:21 10° NE visible
27 Feb 6.9 19:20:10 10° WNW 19:20:50 10° W 19:21:16 10° W visible
28 Feb 6.0 06:01:52 10° SE 06:04:49 20° E 06:07:55 10° NE visible
01 Mar 5.8 05:55:14 10° SE 05:58:19 21° E 06:01:29 10° NE visible
02 Mar 5.7 05:48:38 10° SE 05:51:46 22° E 05:55:02 10° NE visible
03 Mar 5.6 05:42:02 10° SE 05:45:15 24° E 05:48:35 10° NE visible
04 Mar 5.4 05:35:25 10° SE 05:38:43 25° E 05:42:07 10° NE visible
05 Mar 5.3 05:28:49 10° SSE 05:32:11 26° E 05:35:39 10° NE visible
06 Mar 5.2 05:22:12 10° SSE 05:25:38 27° E 05:29:10 10° NNE visible
07 Mar 5.0 05:15:35 10° SSE 05:19:05 29° E 05:22:40 10° NNE visible
